Location: Ferchesar
(52.6477°N, 12.4298°E)
Time: 15:50:34
(UTC+01:00)

Vanguard 1 - Pass Details

Date: 13 December 2021
Orbit: 652 x 3830 km, 34.2° (Epoch: 22 January)

Event Time Altitude Azimuth Distance (km) Brightness Sun altitude
Rises 21:54:38 0° 227° (SW) 6,110 14.2 -51.6°
Reaches altitude 10° 21:58:30 10° 220° (SW) 5,480 13.8 -52.0°
Enters shadow 22:02:06 20° 211° (SSW) 5,014 13.5 -52.5°
Maximum altitude 22:14:26 40° 159° (SSE) 4,574 - -53.8°
Drops below altitude 10° 22:34:38 10° 101° (E) 6,883 - -55.9°
Sets 22:40:16 0° 95° (E) 7,761 - -56.4°
